| time (UTC) | temp F | wind direction | speed MPH | gust MPH | rain 1hr in | rain 24hr in | rain mn in | humidity % | barometer mb |
| 20260831191515 | 97 | 185 | 5.0 | 17.0 | 0.00 | 0.00 | 0.00 | 43 | 1012.2 |
| 20260831190014 | 96 | 200 | 5.0 | 12.0 | 0.00 | 0.00 | 0.00 | 44 | 1012.3 |
| 20260831184512 | 95 | 222 | 10.0 | 17.0 | 0.00 | 0.00 | 0.00 | 45 | 1012.3 |
| 20260831183011 | 95 | 160 | 6.0 | 12.0 | 0.00 | 0.00 | 0.00 | 46 | 1012.3 |
| 20260831181509 | 94 | 229 | 8.0 | 13.0 | 0.00 | 0.00 | 0.00 | 48 | 1012.6 |
| 20260831180016 | 94 | 193 | 5.0 | 11.0 | 0.00 | 0.00 | 0.00 | 47 | 1012.7 |
| 20260831174519 | 93 | 230 | 7.0 | 13.0 | 0.00 | 0.00 | 0.00 | 47 | 1012.8 |
| 20260831173004 | 93 | 197 | 3.0 | 14.0 | 0.00 | 0.00 | 0.00 | 49 | 1012.8 |
| 20260831171504 | 91 | 222 | 4.0 | 13.0 | 0.00 | 0.00 | 0.00 | 50 | 1012.8 |
| 20260831170001 | 90 | 218 | 5.0 | 15.0 | 0.00 | 0.00 | 0.00 | 52 | 1012.9 |
| 20260831164622 | 90 | 236 | 6.0 | 12.0 | 0.00 | 0.00 | 0.00 | 52 | 1012.9 |
| 20260831163059 | 90 | 155 | 6.0 | 11.0 | 0.00 | 0.00 | 0.00 | 52 | 1013.0 |
| 20260831161557 | 88 | 164 | 5.0 | 14.0 | 0.00 | 0.00 | 0.00 | 54 | 1013.1 |
| 20260831160055 | 87 | 220 | 4.0 | 14.0 | 0.00 | 0.00 | 0.00 | 56 | 1013.0 |
| 20260831154559 | 85 | 201 | 9.0 | 16.0 | 0.00 | 0.00 | 0.00 | 57 | 1013.1 |
| 20260831153056 | 84 | 193 | 3.0 | 12.0 | 0.00 | 0.00 | 0.00 | 59 | 1013.1 |
| 20260831151557 | 84 | 226 | 5.0 | 13.0 | 0.00 | 0.00 | 0.00 | 59 | 1013.0 |
| 20260831150053 | 84 | 178 | 5.0 | 11.0 | 0.00 | 0.00 | 0.00 | 59 | 1012.9 |
| 20260831144606 | 83 | 237 | 6.0 | 12.0 | 0.00 | 0.00 | 0.00 | 60 | 1013.0 |
| 20260831143101 | 82 | 158 | 3.0 | 13.0 | 0.00 | 0.00 | 0.00 | 62 | 1013.2 |
| 20260831141600 | 80 | 199 | 6.0 | 12.0 | 0.00 | 0.00 | 0.00 | 63 | 1013.4 |
| 20260831140050 | 79 | 158 | 5.0 | 12.0 | 0.00 | 0.00 | 0.00 | 64 | 1013.3 |
| 20260831134554 | 79 | 162 | 5.0 | 11.0 | 0.00 | 0.00 | 0.00 | 63 | 1013.2 |
| 20260831133047 | 79 | 160 | 6.0 | 12.0 | 0.00 | 0.00 | 0.00 | 63 | 1013.1 |
| 20260831131546 | 79 | 170 | 5.0 | 13.0 | 0.00 | 0.00 | 0.00 | 62 | 1012.7 |
| 20260831130048 | 79 | 199 | 8.0 | 13.0 | 0.00 | 0.00 | 0.00 | 63 | 1012.9 |
| 20260831124545 | 79 | 199 | 8.0 | 16.0 | 0.00 | 0.00 | 0.00 | 63 | 1012.8 |
| 20260831123041 | 78 | 160 | 4.0 | 12.0 | 0.00 | 0.00 | 0.00 | 62 | 1012.7 |
| 20260831121540 | 78 | 174 | 7.0 | 12.0 | 0.00 | 0.00 | 0.00 | 62 | 1012.6 |
| 20260831120041 | 79 | 195 | 6.0 | 11.0 | 0.00 | 0.00 | 0.00 | 62 | 1012.4 |
| 20260831114537 | 79 | 182 | 3.0 | 9.0 | 0.00 | 0.00 | 0.00 | 61 | 1012.4 |
| 20260831113034 | 79 | 144 | 8.0 | 16.0 | 0.00 | 0.00 | 0.00 | 61 | 1012.0 |
| 20260831111537 | 79 | 173 | 5.0 | 13.0 | 0.00 | 0.00 | 0.00 | 61 | 1012.2 |
| 20260831110030 | 79 | 190 | 6.0 | 13.0 | 0.00 | 0.00 | 0.00 | 60 | 1012.1 |
| 20260831104540 | 80 | 164 | 5.0 | 11.0 | 0.00 | 0.00 | 0.00 | 59 | 1012.0 |
| 20260831103025 | 80 | 139 | 6.0 | 11.0 | 0.00 | 0.00 | 0.00 | 58 | 1011.9 |
| 20260831101523 | 80 | 170 | 4.0 | 10.0 | 0.00 | 0.00 | 0.00 | 57 | 1011.7 |
| 20260831100021 | 81 | 187 | 3.0 | 7.0 | 0.00 | 0.00 | 0.00 | 57 | 1011.7 |
| 20260831094521 | 81 | 166 | 5.0 | 7.0 | 0.00 | 0.00 | 0.00 | 56 | 1011.5 |
| 20260831093031 | 81 | 207 | 3.0 | 12.0 | 0.00 | 0.00 | 0.00 | 56 | 1011.2 |
| 20260831091517 | 81 | 203 | 7.0 | 14.0 | 0.00 | 0.00 | 0.00 | 56 | 1011.2 |
| 20260831090014 | 82 | 170 | 6.0 | 13.0 | 0.00 | 0.00 | 0.00 | 55 | 1011.1 |
| 20260831084514 | 82 | 158 | 5.0 | 13.0 | 0.00 | 0.00 | 0.00 | 54 | 1011.1 |
| 20260831083010 | 83 | 147 | 4.0 | 9.0 | 0.00 | 0.00 | 0.00 | 54 | 1011.0 |
| 20260831081509 | 83 | 161 | 4.0 | 9.0 | 0.00 | 0.00 | 0.00 | 53 | 1011.0 |
| 20260831080006 | 83 | 154 | 5.0 | 9.0 | 0.00 | 0.00 | 0.00 | 53 | 1011.0 |
| 20260831074505 | 84 | 158 | 3.0 | 12.0 | 0.00 | 0.00 | 0.00 | 52 | 1010.9 |
| 20260831073003 | 84 | 132 | 5.0 | 11.0 | 0.00 | 0.00 | 0.00 | 52 | 1010.8 |
| 20260831071600 | 85 | 152 | 4.0 | 8.0 | 0.00 | 0.00 | 0.00 | 51 | 1010.7 |
| 20260831070103 | 85 | 146 | 3.0 | 7.0 | 0.00 | 0.00 | 0.00 | 50 | 1010.7 |
| 20260831064557 | 86 | 174 | 3.0 | 10.0 | 0.00 | 0.00 | 0.00 | 50 | 1010.7 |
| 20260831063054 | 86 | 172 | 4.0 | 7.0 | 0.00 | 0.00 | 0.00 | 49 | 1010.7 |
| 20260831061553 | 87 | 135 | 3.0 | 7.0 | 0.00 | 0.00 | 0.00 | 48 | 1010.6 |
| 20260831060050 | 87 | 147 | 4.0 | 7.0 | 0.00 | 0.00 | 0.00 | 48 | 1010.5 |
| 20260831054549 | 87 | 146 | 4.0 | 9.0 | 0.00 | 0.00 | 0.00 | 48 | 1010.4 |
| 20260831053048 | 87 | 159 | 5.0 | 9.0 | 0.00 | 0.00 | 0.00 | 48 | 1010.3 |
| 20260831051546 | 88 | 174 | 4.0 | 12.0 | 0.00 | 0.00 | 0.00 | 48 | 1010.2 |
| 20260831050044 | 88 | 136 | 5.0 | 10.0 | 0.00 | 0.00 | 0.00 | 47 | 1010.2 |
| 20260831044544 | 88 | 160 | 6.0 | 15.0 | 0.00 | 0.00 | 0.00 | 47 | 1010.0 |
| 20260831043045 | 88 | 180 | 7.0 | 16.0 | 0.00 | 0.00 | 0.00 | 47 | 1010.0 |
| 20260831041551 | 89 | 194 | 10.0 | 17.0 | 0.00 | 0.00 | 0.00 | 47 | 1010.0 |
| 20260831040042 | 89 | 172 | 7.0 | 13.0 | 0.00 | 0.00 | 0.00 | 46 | 1010.0 |
| 20260831034541 | 89 | 179 | 8.0 | 16.0 | 0.00 | 0.00 | 0.00 | 46 | 1009.9 |
| 20260831033042 | 90 | 199 | 6.0 | 12.0 | 0.00 | 0.00 | 0.00 | 46 | 1010.0 |
| 20260831031541 | 90 | 170 | 6.0 | 11.0 | 0.00 | 0.00 | 0.00 | 46 | 1009.9 |
| 20260831030040 | 90 | 211 | 5.0 | 10.0 | 0.00 | 0.00 | 0.00 | 46 | 1009.9 |
| 20260831024542 | 90 | 159 | 5.0 | 13.0 | 0.00 | 0.00 | 0.00 | 45 | 1009.8 |
| 20260831023038 | 90 | 180 | 7.0 | 12.0 | 0.00 | 0.00 | 0.00 | 45 | 1009.7 |
| 20260831021539 | 91 | 161 | 4.0 | 10.0 | 0.00 | 0.00 | 0.00 | 46 | 1009.5 |
| 20260831020038 | 92 | 156 | 4.0 | 9.0 | 0.00 | 0.00 | 0.00 | 45 | 1009.3 |
| 20260831014539 | 92 | 178 | 4.0 | 9.0 | 0.00 | 0.00 | 0.00 | 45 | 1009.1 |
| 20260831013038 | 93 | 161 | 4.0 | 8.0 | 0.00 | 0.00 | 0.00 | 45 | 1008.9 |
| 20260831011538 | 93 | 162 | 2.0 | 7.0 | 0.00 | 0.00 | 0.00 | 44 | 1008.8 |
| 20260831010041 | 94 | 150 | 3.0 | 8.0 | 0.00 | 0.00 | 0.00 | 44 | 1008.7 |
| 20260831004536 | 95 | 152 | 5.0 | 10.0 | 0.00 | 0.00 | 0.00 | 43 | 1008.6 |
| 20260831003035 | 96 | 168 | 3.0 | 9.0 | 0.00 | 0.00 | 0.00 | 43 | 1008.6 |
| 20260831001535 | 97 | 155 | 3.0 | 10.0 | 0.00 | 0.00 | 0.00 | 41 | 1008.6 |
| 20260831000035 | 98 | 158 | 6.0 | 12.0 | 0.00 | 0.00 | 0.00 | 40 | 1008.6 |
| 20260830234551 | 99 | 134 | 4.0 | 10.0 | 0.00 | 0.00 | 0.00 | 39 | 1008.5 |
| 20260830233034 | 99 | 174 | 5.0 | 11.0 | 0.00 | 0.00 | 0.00 | 40 | 1008.4 |
| 20260830231534 | 99 | 137 | 5.0 | 14.0 | 0.00 | 0.00 | 0.00 | 40 | 1008.4 |
| 20260830230033 | 100 | 191 | 6.0 | 13.0 | 0.00 | 0.00 | 0.00 | 40 | 1008.2 |
| 20260830224533 | 100 | 172 | 8.0 | 12.0 | 0.00 | 0.00 | 0.00 | 40 | 1008.2 |
| 20260830223036 | 100 | 168 | 7.0 | 18.0 | 0.00 | 0.00 | 0.00 | 40 | 1008.3 |
| 20260830221534 | 100 | 118 | 4.0 | 16.0 | 0.00 | 0.00 | 0.00 | 40 | 1008.4 |
| 20260830220029 | 100 | 81 | 4.0 | 13.0 | 0.00 | 0.00 | 0.00 | 40 | 1008.5 |
| 20260830214527 | 99 | 176 | 7.0 | 19.0 | 0.00 | 0.00 | 0.00 | 40 | 1008.5 |
| 20260830213024 | 99 | 186 | 8.0 | 20.0 | 0.00 | 0.00 | 0.00 | 41 | 1008.6 |
| 20260830211523 | 99 | 188 | 9.0 | 19.0 | 0.00 | 0.00 | 0.00 | 40 | 1008.6 |
| 20260830210021 | 99 | 135 | 10.0 | 20.0 | 0.00 | 0.00 | 0.00 | 41 | 1008.9 |
| 20260830204519 | 98 | 141 | 11.0 | 22.0 | 0.00 | 0.00 | 0.00 | 41 | 1009.1 |
| 20260830203037 | 98 | 201 | 9.0 | 20.0 | 0.00 | 0.00 | 0.00 | 43 | 1009.2 |
| 20260830201515 | 97 | 159 | 9.0 | 19.0 | 0.00 | 0.00 | 0.00 | 42 | 1009.4 |
| 20260830200017 | 97 | 213 | 5.0 | 17.0 | 0.00 | 0.00 | 0.00 | 44 | 1009.7 |
| 20260830194511 | 97 | 237 | 10.0 | 15.0 | 0.00 | 0.00 | 0.00 | 44 | 1009.8 |
| 20260830193009 | 96 | 187 | 8.0 | 18.0 | 0.00 | 0.00 | 0.00 | 46 | 1009.9 |